Eveleth, MN

7:14 AM CDT on August 17, 2017 (GMT -0500)
Eveleth-Virginia Municipal

Weather History for KEVM - May, 2013

Change the Weather History Date:

Saturday, May 25, 2013

  Actual Average Record
Temperature  
Mean Temperature 53 °F -  
Max Temperature 64 °F 64 °F 82 °F (2006)
Min Temperature 42 °F 38 °F 32 °F (2011)
Degree Days  
Heating Degree Days 12    
Growing Degree Days 3 (Base 50)    
Moisture  
Dew Point 36 °F    
Average Humidity 51    
Maximum Humidity 87    
Minimum Humidity 37    
Precipitation  
Precipitation 0.00 in - - ()
Sea Level Pressure  
Sea Level Pressure 30.29 in    
Wind  
Wind Speed 4 mph (ESE)    
Max Wind Speed 15 mph    
Max Gust Speed 23 mph    
Visibility 10 miles    
Events Rain    
Averages and records for this station are not official NWS values.
T = Trace of Precipitation, MM = Missing Value Source: NWS Daily Summary

Daily Weather History Graph

Daily Weather History Graph

Search for Another Location

Airport or City:

Trip Planner

Search our weather history database for the weather conditions in past years. The results will help you decide how hot, cold, wet, or windy it might be!

Date:

Astronomy

May. 25, 2013 Rise Set
Actual Time 5:22 AM CDT 8:52 PM CDT
Civil Twilight 4:44 AM CDT 9:30 PM CDT
Nautical Twilight 3:53 AM CDT 10:21 PM CDT
Astronomical Twilight 2:46 AM CDT 11:29 PM CDT
Moon 9:39 PM CDT (5/25) 5:51 AM CDT (5/25)
Length of Visible Light 16h 46m
Length of Day
15h 30m
Full, 100% of the Moon is Illuminated
May 25
Full
May 31
Last Quarter
Jun 8
New
Jun 16
First Quarter
Jun 23
Full

Hourly Weather History & Observations

Time (CDT) Temp. Windchill Dew Point Humidity Pressure Visibility Wind Dir Wind Speed Gust Speed Precip Events Conditions
12:09 AM 51.8 °F - 32.0 °F 47% 30.28 in 10.0 mi Calm Calm - N/A   Overcast
12:29 AM 51.8 °F - 33.8 °F 50% 30.27 in 10.0 mi Calm Calm - N/A   Overcast
12:49 AM 50.0 °F - 32.0 °F 50% 30.27 in 10.0 mi NE 3.5 mph - N/A   Overcast
1:09 AM 51.8 °F - 32.0 °F 47% 30.27 in 10.0 mi Calm Calm - N/A   Overcast
1:29 AM 50.0 °F - 32.0 °F 50% 30.27 in 10.0 mi Calm Calm - N/A   Overcast
1:49 AM 50.0 °F - 33.8 °F 54% 30.27 in 10.0 mi Calm Calm - N/A   Overcast
2:09 AM 50.0 °F - 32.0 °F 50% 30.27 in 10.0 mi Calm Calm - N/A   Overcast
2:29 AM 50.0 °F - 32.0 °F 50% 30.27 in 10.0 mi Calm Calm - N/A   Overcast
2:49 AM 48.2 °F - 32.0 °F 54% 30.28 in 10.0 mi Calm Calm - N/A   Overcast
3:09 AM 46.4 °F 45.2 °F 32.0 °F 57% 30.28 in 10.0 mi ENE 3.5 mph - N/A   Overcast
3:29 AM 46.4 °F 44.3 °F 33.8 °F 62% 30.27 in 10.0 mi NE 4.6 mph - N/A   Overcast
3:49 AM 46.4 °F 45.2 °F 32.0 °F 57% 30.27 in 10.0 mi NE 3.5 mph - N/A   Overcast
4:09 AM 46.4 °F 45.2 °F 32.0 °F 57% 30.27 in 10.0 mi ENE 3.5 mph - N/A   Overcast
4:29 AM 46.4 °F 45.2 °F 32.0 °F 57% 30.28 in 10.0 mi NE 3.5 mph - N/A   Overcast
4:49 AM 44.6 °F 42.2 °F 35.6 °F 71% 30.29 in 10.0 mi ENE 4.6 mph - N/A Rain Light Rain
5:09 AM 44.6 °F - 35.6 °F 71% 30.29 in 10.0 mi Calm Calm - N/A   Overcast
5:29 AM 44.6 °F - 37.4 °F 76% 30.30 in 10.0 mi Calm Calm - N/A Rain Light Rain
5:49 AM 42.8 °F 41.1 °F 39.2 °F 87% 30.30 in 10.0 mi NE 3.5 mph - N/A   Light Drizzle
6:09 AM 44.6 °F - 37.4 °F 76% 30.31 in 10.0 mi Calm Calm - N/A   Light Drizzle
6:29 AM 44.6 °F - 41.0 °F 87% 30.31 in 10.0 mi Calm Calm - N/A   Overcast
6:49 AM 44.6 °F - 37.4 °F 76% 30.31 in 10.0 mi Calm Calm - N/A   Overcast
7:09 AM 44.6 °F 43.1 °F 35.6 °F 71% 30.32 in 10.0 mi NE 3.5 mph - N/A   Overcast
7:29 AM 46.4 °F - 35.6 °F 66% 30.32 in 10.0 mi Calm Calm - N/A   Overcast
7:49 AM 46.4 °F - 37.4 °F 71% 30.32 in 10.0 mi Calm Calm - N/A   Overcast
8:09 AM 50.0 °F - 37.4 °F 62% 30.31 in 10.0 mi ENE 3.5 mph - N/A   Overcast
8:29 AM 51.8 °F - 39.2 °F 62% 30.31 in 10.0 mi Calm Calm - N/A   Overcast
8:49 AM 51.8 °F - 37.4 °F 58% 30.31 in 10.0 mi East 3.5 mph - N/A   Overcast
9:09 AM 51.8 °F - 35.6 °F 54% 30.30 in 10.0 mi East 3.5 mph - N/A   Overcast
9:30 AM 53.6 °F - 37.4 °F 54% 30.29 in 10.0 mi East 4.6 mph - N/A   Overcast
9:49 AM 55.4 °F - 39.2 °F 54% 30.30 in 10.0 mi East 4.6 mph - N/A   Overcast
10:09 AM 57.2 °F - 39.2 °F 51% 30.30 in 10.0 mi ESE 4.6 mph - N/A   Overcast
10:30 AM 57.2 °F - 37.4 °F 48% 30.30 in 10.0 mi ESE 5.8 mph - N/A   Overcast
10:49 AM 57.2 °F - 39.2 °F 51% 30.30 in 10.0 mi SE 3.5 mph - N/A   Overcast
11:09 AM 59.0 °F - 39.2 °F 48% 30.30 in 10.0 mi SE 4.6 mph - N/A   Overcast
11:30 AM 59.0 °F - 37.4 °F 45% 30.30 in 10.0 mi ESE 5.8 mph - N/A   Overcast
11:49 AM 59.0 °F - 37.4 °F 45% 30.30 in 10.0 mi SE 5.8 mph - N/A   Overcast
12:09 PM 59.0 °F - 39.2 °F 48% 30.31 in 10.0 mi SE 8.1 mph - N/A   Overcast
12:30 PM 59.0 °F - 37.4 °F 45% 30.31 in 10.0 mi SSE 8.1 mph - N/A   Overcast
12:49 PM 59.0 °F - 35.6 °F 42% 30.30 in 10.0 mi SSE 11.5 mph - N/A   Overcast
1:09 PM 59.0 °F - 35.6 °F 42% 30.30 in 10.0 mi SE 11.5 mph - N/A   Overcast
1:29 PM 62.6 °F - 37.4 °F 39% 30.30 in 10.0 mi SSE 10.4 mph - N/A   Overcast
1:49 PM 62.6 °F - 37.4 °F 39% 30.30 in 10.0 mi SSE 10.4 mph 16.1 mph N/A   Overcast
2:10 PM 62.6 °F - 37.4 °F 39% 30.30 in 10.0 mi SE 12.7 mph 19.6 mph N/A   Overcast
2:29 PM 62.6 °F - 37.4 °F 39% 30.30 in 10.0 mi SSE 11.5 mph 20.7 mph N/A   Overcast
2:49 PM 64.4 °F - 37.4 °F 37% 30.30 in 10.0 mi South 15.0 mph - N/A   Overcast
3:10 PM 62.6 °F - 37.4 °F 39% 30.29 in 10.0 mi South 13.8 mph - N/A   Scattered Clouds
3:29 PM 62.6 °F - 37.4 °F 39% 30.30 in 10.0 mi SE 10.4 mph 17.3 mph N/A   Clear
3:50 PM 64.4 °F - 37.4 °F 37% 30.30 in 10.0 mi SSE 9.2 mph 18.4 mph N/A   Scattered Clouds
4:09 PM 64.4 °F - 37.4 °F 37% 30.30 in 10.0 mi South 11.5 mph 18.4 mph N/A   Scattered Clouds
4:29 PM 62.6 °F - 37.4 °F 39% 30.29 in 10.0 mi SSE 11.5 mph 23.0 mph N/A   Scattered Clouds
4:50 PM 64.4 °F - 37.4 °F 37% 30.29 in 10.0 mi SE 12.7 mph 17.3 mph N/A   Scattered Clouds
5:09 PM 62.6 °F - 37.4 °F 39% 30.29 in 10.0 mi South 9.2 mph - N/A   Scattered Clouds
5:29 PM 62.6 °F - 37.4 °F 39% 30.29 in 10.0 mi South 9.2 mph - N/A   Mostly Cloudy
5:50 PM 62.6 °F - 39.2 °F 42% 30.29 in 10.0 mi South 9.2 mph - N/A   Overcast
6:09 PM 62.6 °F - 39.2 °F 42% 30.28 in 10.0 mi South 6.9 mph - N/A   Overcast
6:29 PM 62.6 °F - 39.2 °F 42% 30.28 in 10.0 mi SSE 8.1 mph - N/A   Overcast
6:49 PM 62.6 °F - 39.2 °F 42% 30.27 in 10.0 mi SSE 8.1 mph - N/A   Overcast
7:09 PM 62.6 °F - 39.2 °F 42% 30.27 in 10.0 mi SSE 8.1 mph - N/A   Overcast
7:29 PM 62.6 °F - 37.4 °F 39% 30.27 in 10.0 mi South 8.1 mph - N/A   Overcast
7:49 PM 59.0 °F - 35.6 °F 42% 30.28 in 10.0 mi ESE 8.1 mph - N/A   Overcast
8:09 PM 57.2 °F - 33.8 °F 41% 30.29 in 10.0 mi ESE 11.5 mph 17.3 mph N/A   Scattered Clouds
8:29 PM 53.6 °F - 32.0 °F 44% 30.29 in 10.0 mi SE 8.1 mph - N/A   Clear
8:49 PM 51.8 °F - 32.0 °F 47% 30.28 in 10.0 mi ESE 4.6 mph - N/A   Clear
9:09 PM 51.8 °F - 32.0 °F 47% 30.30 in 10.0 mi ESE 4.6 mph - N/A   Clear
9:29 PM 51.8 °F - 32.0 °F 47% 30.30 in 10.0 mi ESE 3.5 mph - N/A   Clear
9:50 PM 51.8 °F - 32.0 °F 47% 30.30 in 10.0 mi East 3.5 mph - N/A   Clear
10:09 PM 51.8 °F - 32.0 °F 47% 30.30 in 10.0 mi East 3.5 mph - N/A   Clear
10:29 PM 50.0 °F - 30.2 °F 47% 30.31 in 10.0 mi East 3.5 mph - N/A   Clear
10:49 PM 48.2 °F - 30.2 °F 50% 30.31 in 10.0 mi East 3.5 mph - N/A   Clear
11:09 PM 46.4 °F - 30.2 °F 53% 30.31 in 10.0 mi Calm Calm - N/A   Clear
11:29 PM 44.6 °F 43.1 °F 28.4 °F 53% 30.31 in 10.0 mi NE 3.5 mph - N/A   Clear
11:49 PM 42.8 °F 41.1 °F 30.2 °F 61% 30.31 in 10.0 mi ENE 3.5 mph - N/A   Clear